Location: Asheville, NC
(35.6000°N, 82.5500°W)
Time: 16:55:23
(UTC-05:00)

CUBEBUG 2 - Pass Details

Date: 03 January 2018
Orbit: 587 x 699 km, 97.6° (Epoch: 21 January)

Event Time Altitude Azimuth Distance (km) Brightness Sun altitude
Rises 18:28:23 0° 145° (SE) 2,799 ? -11.8°
Reaches altitude 10° 18:30:41 10° 136° (SE) 1,907 ? -12.2°
Maximum altitude 18:34:22 32° 72° (ENE) 1,016 ? -12.9°
Drops below altitude 10° 18:38:08 10° 9° (N) 1,948 ? -13.6°
Sets 18:40:29 0° 359° (N) 2,870 ? -14.1°
